Location: Newark
(54.3386°S, 169.8415°W)
Time: 03:58:47
(UTC+00:00)

N. Korean satellite - Pass Details

Date: 27 October 2019
Orbit: 456 x 506 km, 97.2° (Epoch: 18 November)

Event Time Altitude Azimuth Distance (km) Brightness Sun altitude
Rises 14:50:13 0° 60° (ENE) 2,611 10.6 -7.6°
Reaches altitude 10° 14:52:51 10° 80° (E) 1,727 10.1 -7.2°
Maximum altitude 14:55:17 17° 121° (ESE) 1,350 10.3 -6.9°
Drops below altitude 10° 14:57:42 10° 162° (SSE) 1,724 10.2 -6.6°
Sets 15:00:20 0° 182° (S) 2,605 10.7 -6.3°
